Flag for Switzerland Weather past 2 weeks in Arth, Schwyz, Switzerland

Now
74 °F

Mild.


Feels Like: 77 °F
Forecast: 56 / 72 °F
Wind: 1 mph from North

Location: Altdorf

Current Time: Aug 30, 2015 at 10:48:27 AM

Latest Report: Aug 30, 2015 at 10:00 AM


Visibility: N/A

Pressure: 30.13 "Hg

Humidity: 55%

Dew point: 57 °F

Location of ArthLocation

Historic Weather in Arth — Graph

°F

Arth temperature yesterday

Maximum temperature yesterday: 82 °F (at 4:00 PM)
Minimum temperature yesterday: 60 °F (at 7:00 AM)
Average temperature yesterday: 72 °F

Past Weeks' High & Low Weather Summary

 TemperatureHumidityPressure
High84 °F (Aug 28, 4:00 PM)99% (Aug 19, 2:00 AM)30.28 "Hg (Aug 19, 2:00 AM)
Low50 °F (Aug 26, 7:00 AM)36% (Aug 23, 12:00 PM)29.67 "Hg (Aug 24, 8:00 AM)
Average64 °F77%30.01 "Hg
* Reported Aug 15 9:00 AM — Aug 30 9:00 AM, Arth, Weather by CustomWeather, © 2015

Note: Actual official high and low records may vary slightly from our data, if they occured in-between our weather recording intervals... More about our weather records

Advertising

Arth weather history for previous 24 hours

 ConditionsComfort  
Time TempWeatherWind HumidityBarometerVisibility
9:00 AM
Sun, Aug 30
69 °FMild.No wind69%30.16 "HgN/A
8:00 AM60 °FSunny.3 mph80%30.18 "Hg19 mi
7:00 AM56 °FCool.No wind91%30.19 "HgN/A
6:00 AM60 °FCool.1 mph82%30.16 "HgN/A
5:00 AM58 °FClear.2 mph92%30.16 "Hg19 mi
4:00 AM63 °FMild.2 mph87%30.14 "HgN/A
3:00 AM63 °FMild.3 mph90%30.13 "HgN/A
2:00 AM65 °FClear.3 mph84%30.12 "Hg19 mi
1:00 AM68 °FMild.3 mph81%30.11 "HgN/A
12:00 AM67 °FMild.2 mph84%30.10 "HgN/A
10:00 PM
Sat, Aug 29
70 °FMild.2 mph79%30.09 "HgN/A
9:00 PM69 °FMild.3 mph84%30.08 "HgN/A
7:00 PM76 °FMild.1 mph69%30.03 "HgN/A
6:00 PM79 °FWarm.1 mph61%30.04 "HgN/A
5:00 PM81 °FSunny.6 mph55%30.04 "Hg19 mi
4:00 PM82 °FWarm.5 mph54%30.06 "HgN/A
3:00 PM81 °FWarm.3 mph56%30.08 "HgN/A
1:00 PM77 °FMild.5 mph64%30.13 "HgN/A
12:00 PM75 °FMild.5 mph67%30.15 "HgN/A
10:00 AM72 °FMild.2 mph72%30.16 "HgN/A
Weather by CustomWeather, © 2015

See weather overviewHow to use our weather pages